Overview Statistics Trail Chart Weather Telemetry Raw packets
 

This is the latest recevied weather packets stored in our database for station/object KA6AKH-WX. If no packets are shown the sender has not sent any weather packets the latest 10 day(s).

<< 15 16 17 18 19 20 21 >>
Time Temp. Humidity Pressure Rain* Wind** Luminosity Snow
1788143844 22.78° C 96% 1019.1 hPa 0 mm - - -
1788143244 22.78° C 96% 1019.3 hPa 0 mm - - -
1788142045 22.78° C 96% 1019.3 hPa 0 mm - - -
1788142044 22.78° C 96% 1019.3 hPa 0 mm - - -
1788140843 23.33° C 96% 1019.4 hPa 0 mm - - -
1788140244 23.33° C 95% 1019.3 hPa 0 mm - - -
1788139643 23.33° C 95% 1019.2 hPa 0 mm - - -
1788139045 22.78° C 95% 1019.1 hPa 3.05 mm - - -
1788138444 22.78° C 95% 1019.1 hPa 3.05 mm - - -
1788138089 22.78° C 94% 1019.1 hPa 3.05 mm - - -
1788137844 22.78° C 94% 1019.1 hPa 3.05 mm - - -
1788137243 22.78° C 94% 1019.1 hPa 3.05 mm - - -
1788136613 22.78° C 91% 1019.3 hPa 3.05 mm - - -
1788136013 23.33° C 88% 1019.8 hPa 3.05 mm - - -
1788134817 25.56° C 75% 1019.9 hPa 0 mm - - -
1788134213 27.22° C 71% 1019.7 hPa 0 mm - - -
1788133613 27.78° C 73% 1019 hPa 0 mm - - -
1788133013 28.33° C 72% 1018.7 hPa 0 mm - - -
1788132413 28.33° C 70% 1018.7 hPa 0 mm - - -
1788131813 28.89° C 68% 1018.6 hPa 0 mm - - -
1788131213 28.89° C 67% 1018.6 hPa 0 mm - - -
1788130613 28.89° C 66% 1018.6 hPa 0 mm - - -
1788130013 29.44° C 65% 1018.7 hPa 0 mm - - -
1788129413 29.44° C 64% 1018.8 hPa 0 mm - - -
1788128813 29.44° C 63% 1018.5 hPa 0 mm - - -

* Rain latest hour (hover to see other rain measurements)
** Current wind speed in m/s (hover to see current wind gust speed)